EW6434 Weather Reports


time (UTC)temp
F
wind
direction
speed
knots
gust
knots
rain 1hr
in
rain 24hr
in
rain mn
in
humidity
%
barometer
mb
20260906223042 70 303 0.0 4.3 0.00 0.00 0.00 36 1010.4
20260906221538 71 175 0.0 1.7 0.00 0.00 0.00 37 1010.4
20260906220033 72 231 0.0 1.7 0.00 0.00 0.00 36 1010.3
20260906214531 73 257 0.0 0.9 0.00 0.00 0.00 34 1010.4
20260906213030 73 266 0.0 0.9 0.00 0.00 0.00 35 1010.4
20260906211530 74 259 0.0 2.6 0.00 0.00 0.00 32 1010.5
20260906210027 76 257 0.0 3.5 0.00 0.00 0.00 31 1010.5
20260906204541 74 199 0.0 6.1 0.00 0.00 0.00 33 1010.8
20260906203024 75 267 0.0 7.0 0.00 0.00 0.00 32 1010.9
20260906201524 74 147 0.0 2.6 0.00 0.00 0.00 33 1010.9
20260906200021 72 226 0.0 5.2 0.00 0.00 0.00 39 1011.2
20260906194519 71 128 0.9 4.3 0.00 0.00 0.00 35 1011.4
20260906193020 72 182 0.0 4.3 0.00 0.00 0.00 35 1011.3
20260906191517 72 103 0.0 3.5 0.00 0.00 0.00 37 1011.8
20260906190016 71 138 0.0 2.6 0.00 0.00 0.00 37 1011.7
20260906184515 72 269 0.0 3.5 0.00 0.00 0.00 35 1011.8
20260906183014 72 252 0.0 3.5 0.00 0.00 0.00 38 1012.0
20260906181513 72 213 1.7 7.0 0.00 0.00 0.00 35 1012.4
20260906180009 73 152 1.7 7.0 0.00 0.00 0.00 36 1012.6
20260906174505 72 176 0.0 4.3 0.00 0.00 0.00 36 1012.8
20260906173003 71 18 0.0 2.6 0.00 0.00 0.00 36 1013.2
20260906171604 69 273 0.0 0.0 0.00 0.00 0.00 39 1013.4
20260906170110 67 248 0.0 0.0 0.00 0.00 0.00 38 1013.8
20260906164551 65 248 0.0 0.0 0.00 0.00 0.00 47 1014.0
20260906163056 60 257 0.0 0.0 0.00 0.00 0.00 57 1014.3
20260906161545 58 234 0.0 0.0 0.00 0.00 0.00 60 1014.4
20260906160050 57 235 0.0 0.0 0.00 0.00 0.00 60 1014.5
20260906154536 55 235 0.0 0.0 0.00 0.00 0.00 60 1014.6
20260906153037 51 235 0.0 0.0 0.00 0.00 0.00 71 1014.9
20260906151529 50 235 0.0 0.0 0.00 0.00 0.00 73 1015.2
20260906150027 48 235 0.0 0.0 0.00 0.00 0.00 74 1015.1
20260906144523 45 235 0.0 0.0 0.00 0.00 0.00 77 1015.3
20260906143021 41 137 0.0 0.0 0.00 0.00 0.00 84 1015.5
20260906141523 40 137 0.0 0.0 0.00 0.00 0.00 84 1015.7
20260906140022 39 137 0.0 0.0 0.00 0.00 0.00 82 1015.8
20260906134519 39 137 0.0 0.0 0.00 0.00 0.00 83 1015.7
20260906133018 39 137 0.0 0.0 0.00 0.00 0.00 81 1015.6
20260906131516 38 137 0.0 0.0 0.00 0.00 0.00 82 1015.5
20260906130014 38 173 0.0 0.0 0.00 0.00 0.00 81 1015.0
20260906124513 39 173 0.0 0.0 0.00 0.00 0.00 80 1015.0
20260906123112 38 173 0.0 0.0 0.00 0.00 0.00 81 1014.9
20260906121515 38 173 0.0 0.0 0.00 0.00 0.00 82 1014.9
20260906120010 39 173 0.0 0.0 0.00 0.00 0.00 80 1015.1
20260906114518 39 173 0.0 0.0 0.00 0.00 0.00 79 1015.0
20260906113012 39 141 0.0 0.0 0.00 0.00 0.00 79 1015.1
20260906111506 39 179 0.0 0.0 0.00 0.00 0.00 79 1014.7
20260906110005 39 179 0.0 0.0 0.00 0.00 0.00 79 1014.7
20260906104503 40 179 0.0 0.0 0.00 0.00 0.00 79 1014.7
20260906103001 40 179 0.0 0.0 0.00 0.00 0.00 79 1014.6
20260906101600 40 179 0.0 0.0 0.00 0.00 0.00 78 1014.5
20260906100058 40 179 0.0 0.0 0.00 0.00 0.00 78 1014.4
20260906094558 41 179 0.0 0.0 0.00 0.00 0.00 78 1014.5
20260906093057 41 100 0.0 0.0 0.00 0.00 0.00 80 1014.4
20260906091554 41 100 0.0 0.0 0.00 0.00 0.00 79 1014.0
20260906090056 41 101 0.0 0.0 0.00 0.00 0.00 79 1013.9
20260906084552 42 101 0.0 0.0 0.00 0.00 0.00 79 1014.1
20260906083052 42 101 0.0 0.0 0.00 0.00 0.00 79 1014.2
20260906081547 42 100 0.0 0.0 0.00 0.00 0.00 79 1014.2
20260906080047 43 101 0.0 0.0 0.00 0.00 0.00 79 1014.3
20260906074544 43 100 0.0 0.0 0.00 0.00 0.00 78 1014.3
20260906073041 44 101 0.0 0.0 0.00 0.00 0.00 77 1014.3
20260906071540 44 100 0.0 0.0 0.00 0.00 0.00 78 1014.4
20260906070041 44 101 0.0 0.0 0.00 0.00 0.00 77 1014.4
20260906064537 44 101 0.0 0.0 0.00 0.00 0.00 77 1014.6
20260906063034 45 100 0.0 0.0 0.00 0.00 0.00 76 1014.4
20260906061535 46 100 0.0 0.0 0.00 0.00 0.00 74 1014.3
20260906060033 46 100 0.0 0.0 0.00 0.00 0.00 75 1014.2
20260906054542 46 100 0.0 0.0 0.00 0.00 0.00 75 1014.2
20260906053029 47 100 0.0 0.0 0.00 0.00 0.00 74 1014.3
20260906051528 47 101 0.0 0.0 0.00 0.00 0.00 73 1014.2
20260906050028 48 100 0.0 0.0 0.00 0.00 0.00 71 1014.0
20260906044528 49 100 0.0 0.0 0.00 0.00 0.00 70 1014.0
20260906043027 49 101 0.0 0.0 0.00 0.00 0.00 70 1013.9
20260906041530 50 100 0.0 0.0 0.00 0.00 0.00 69 1013.9
20260906040049 51 101 0.0 0.0 0.00 0.00 0.00 68 1013.7
20260906034526 51 101 0.0 0.0 0.00 0.00 0.00 68 1013.3
20260906033039 52 100 0.0 0.0 0.00 0.00 0.00 64 1013.1
20260906031525 53 100 0.0 0.0 0.00 0.00 0.00 63 1012.8
20260906030026 54 100 0.0 0.0 0.00 0.00 0.00 63 1012.6
20260906024524 55 100 0.0 0.0 0.00 0.00 0.00 61 1012.3
20260906023024 56 100 0.0 0.0 0.00 0.00 0.00 58 1012.1
20260906021523 57 100 0.0 0.0 0.00 0.00 0.00 56 1011.7
20260906020022 58 100 0.0 0.0 0.00 0.00 0.00 54 1011.5
20260906014526 60 100 0.0 0.0 0.00 0.00 0.00 53 1011.2
20260906013021 61 100 0.0 0.0 0.00 0.00 0.00 47 1011.1
20260906011520 63 100 0.0 0.0 0.00 0.00 0.00 44 1010.8
20260906010020 65 101 0.0 0.0 0.00 0.00 0.00 42 1010.8
20260906004519 66 100 0.0 1.7 0.00 0.00 0.00 40 1010.6
20260906003018 68 25 0.0 0.9 0.00 0.00 0.00 37 1010.5
20260906001517 71 277 0.0 4.3 0.00 0.00 0.00 35 1010.4
20260906000018 72 133 0.0 1.7 0.00 0.00 0.00 34 1010.3
20260905234518 73 335 0.0 3.5 0.00 0.00 0.00 33 1010.2
20260905233014 74 89 0.0 3.5 0.00 0.00 0.00 32 1010.2
20260905231519 74 164 0.0 2.6 0.00 0.00 0.00 32 1010.1
20260905230013 73 199 0.0 8.7 0.00 0.00 0.00 33 1010.0
20260905224525 74 139 0.0 3.5 0.00 0.00 0.00 32 1010.1